Colorado City, AZ

3:30 PM MST on May 28, 2017 (GMT -0700)
Colorado City Municipal

Weather History for KAZC - June, 2014

Change the Weather History Date:

Monday, June 9, 2014

  Actual Average (KSGU) Record (KSGU)
Temperature  
Mean Temperature 74 °F -  
Max Temperature 93 °F 92 °F 107 °F (1985)
Min Temperature 56 °F 59 °F 45 °F (1941)
Cooling Degree Days 10    
Growing Degree Days 24 (Base 50)    
Moisture  
Dew Point 21 °F    
Average Humidity 14    
Maximum Humidity 23    
Minimum Humidity 6    
Precipitation  
Precipitation 0.00 in - - ()
Sea Level Pressure  
Sea Level Pressure 30.07 in    
Wind  
Wind Speed 7 mph (ENE)    
Max Wind Speed 14 mph    
Max Gust Speed 25 mph    
Visibility 10 miles    
Events      
Averages and records for this station are not official NWS values.
T = Trace of Precipitation, MM = Missing Value Source: NWS Daily Summary

Daily Weather History Graph

Daily Weather History Graph

Search for Another Location

Airport or City:

Trip Planner

Search our weather history database for the weather conditions in past years. The results will help you decide how hot, cold, wet, or windy it might be!

Date:

Astronomy

Jun. 09, 2014 Rise Set
Actual Time 5:12 AM MST 7:50 PM MST
Civil Twilight 4:41 AM MST 8:21 PM MST
Nautical Twilight 4:03 AM MST 8:59 PM MST
Astronomical Twilight 3:20 AM MST 9:42 PM MST
Moon 4:20 PM MST (6/9) 2:36 AM MST (6/9)
Length of Visible Light 15h 39m
Length of Day
14h 38m
Waxing Gibbous, 86% of the Moon is Illuminated
Jun 9
Waxing Gibbous
Jun 12
Full
Jun 19
Last Quarter
Jun 27
New
Jul 5
First Quarter

Hourly Weather History & Observations

Time (MST) Temp. Dew Point Humidity Pressure Visibility Wind Dir Wind Speed Gust Speed Precip Events Conditions
12:15 AM 65.5 °F 20.8 °F 18% 30.11 in 10.0 mi East 5.8 mph - N/A   Clear
12:35 AM 64.8 °F 17.4 °F 16% 30.11 in 10.0 mi ESE 8.1 mph - N/A   Clear
12:55 AM 66.2 °F 16.7 °F 15% 30.11 in 10.0 mi ENE 6.9 mph - N/A   Clear
1:15 AM 66.6 °F 17.6 °F 15% 30.11 in 10.0 mi East 5.8 mph - N/A   Clear
1:35 AM 62.8 °F 19.8 °F 19% 30.11 in 10.0 mi ENE 6.9 mph - N/A   Clear
1:55 AM 61.7 °F 19.4 °F 20% 30.12 in 10.0 mi East 8.1 mph - N/A   Clear
2:15 AM 62.2 °F 18.1 °F 18% 30.12 in 10.0 mi East 8.1 mph - N/A   Clear
2:35 AM 64.2 °F 18.0 °F 17% 30.11 in 10.0 mi ENE 9.2 mph - N/A   Clear
2:55 AM 64.8 °F 20.5 °F 18% 30.11 in 10.0 mi NE 10.4 mph - N/A   Clear
3:15 AM 66.6 °F 21.4 °F 18% 30.11 in 10.0 mi ENE 9.2 mph - N/A   Clear
3:35 AM 66.0 °F 21.9 °F 19% 30.12 in 10.0 mi ENE 6.9 mph 16.1 mph N/A   Clear
3:55 AM 65.7 °F 21.7 °F 19% 30.12 in 10.0 mi ENE 5.8 mph - N/A   Clear
4:15 AM 65.8 °F 22.8 °F 20% 30.12 in 10.0 mi ENE 9.2 mph - N/A   Clear
4:35 AM 66.6 °F 23.2 °F 19% 30.12 in 10.0 mi NE 11.5 mph - N/A   Clear
4:55 AM 65.8 °F 23.7 °F 20% 30.13 in 10.0 mi ENE 10.4 mph - N/A   Clear
5:15 AM 64.4 °F 24.3 °F 22% 30.13 in 10.0 mi NE 10.4 mph - N/A   Clear
5:35 AM 64.8 °F 24.4 °F 22% 30.14 in 10.0 mi ENE 10.4 mph - N/A   Clear
5:55 AM 66.0 °F 25.2 °F 21% 30.15 in 10.0 mi ENE 9.2 mph - N/A   Clear
6:15 AM 68.0 °F 25.3 °F 20% 30.15 in 10.0 mi NE 11.5 mph - N/A   Clear
6:35 AM 69.6 °F 25.2 °F 19% 30.15 in 10.0 mi NE 9.2 mph - N/A   Clear
6:55 AM 71.1 °F 25.5 °F 18% 30.15 in 10.0 mi NE 10.4 mph - N/A   Clear
7:15 AM 72.5 °F 26.2 °F 18% 30.16 in 10.0 mi ENE 9.2 mph - N/A   Clear
7:35 AM 73.4 °F 26.1 °F 17% 30.16 in 10.0 mi NE 10.4 mph 17.3 mph N/A   Clear
7:55 AM 74.7 °F 26.4 °F 17% 30.16 in 10.0 mi NE 6.9 mph - N/A   Clear
8:15 AM 76.1 °F 26.4 °F 16% 30.16 in 10.0 mi NE 11.5 mph - N/A   Clear
8:35 AM 77.4 °F 26.8 °F 15% 30.16 in 10.0 mi ENE 11.5 mph 16.1 mph N/A   Clear
8:55 AM 78.4 °F 26.8 °F 15% 30.16 in 10.0 mi ENE 10.4 mph 16.1 mph N/A   Clear
9:35 AM 81.1 °F 25.9 °F 13% 30.15 in 10.0 mi ENE 10.4 mph 16.1 mph N/A   Clear
9:55 AM 81.7 °F 25.3 °F 13% 30.15 in 10.0 mi East 8.1 mph - N/A   Clear
10:15 AM 82.6 °F 25.0 °F 12% 30.15 in 10.0 mi ESE 6.9 mph - N/A   Clear
10:35 AM 83.1 °F 24.1 °F 11% 30.15 in 10.0 mi NE 3.5 mph - N/A   Clear
10:55 AM 83.7 °F 24.1 °F 11% 30.14 in 10.0 mi SSE 4.6 mph - N/A   Clear
11:15 AM 84.9 °F 24.1 °F 11% 30.13 in 10.0 mi East 4.6 mph - N/A   Clear
11:35 AM 85.3 °F 24.1 °F 11% 30.13 in 10.0 mi Calm Calm - N/A   Clear
12:35 PM 88.0 °F 24.4 °F 10% 30.11 in 10.0 mi Calm Calm - N/A   Clear
12:55 PM 88.0 °F 23.9 °F 10% 30.09 in 10.0 mi Calm Calm - N/A   Clear
1:15 PM 89.4 °F 23.7 °F 9% 30.08 in 10.0 mi SW 4.6 mph - N/A   Clear
1:35 PM 90.7 °F 23.7 °F 9% 30.08 in 10.0 mi Calm Calm - N/A   Clear
1:55 PM 91.0 °F 22.3 °F 8% 30.07 in 10.0 mi SSW 4.6 mph - N/A   Clear
2:15 PM 91.0 °F 20.8 °F 8% 30.06 in 10.0 mi WNW 3.5 mph - N/A   Clear
2:35 PM 91.9 °F 19.8 °F 7% 30.05 in 10.0 mi West 9.2 mph - N/A   Clear
2:55 PM 92.7 °F 18.5 °F 7% 30.04 in 10.0 mi NNW 10.4 mph - N/A   Clear
3:15 PM 93.4 °F 18.7 °F 7% 30.03 in 10.0 mi NW 8.1 mph 21.9 mph N/A   Clear
3:35 PM 93.7 °F 18.3 °F 6% 30.03 in 10.0 mi West 10.4 mph 19.6 mph N/A   Clear
3:55 PM 93.7 °F 18.3 °F 6% 30.02 in 10.0 mi WNW 10.4 mph - N/A   Clear
4:15 PM 93.9 °F 17.8 °F 6% 30.01 in 10.0 mi NNW 13.8 mph 23.0 mph N/A   Clear
4:35 PM 93.2 °F 16.5 °F 6% 30.00 in 10.0 mi NW 8.1 mph - N/A   Clear
4:55 PM 93.4 °F 17.6 °F 6% 30.00 in 10.0 mi NW 12.7 mph 25.3 mph N/A   Clear
5:15 PM 93.2 °F 18.9 °F 7% 29.99 in 10.0 mi West 9.2 mph 18.4 mph N/A   Clear
5:35 PM 92.7 °F 19.0 °F 7% 29.99 in 10.0 mi NNW 4.6 mph - N/A   Clear
5:55 PM 91.9 °F 19.6 °F 7% 29.98 in 10.0 mi West 10.4 mph - N/A   Clear
6:15 PM 92.1 °F 20.7 °F 7% 29.98 in 10.0 mi WNW 6.9 mph - N/A   Clear
6:35 PM 91.2 °F 20.3 °F 8% 29.98 in 10.0 mi WSW 5.8 mph 16.1 mph N/A   Clear
6:55 PM 90.5 °F 20.1 °F 8% 29.99 in 10.0 mi WNW 6.9 mph - N/A   Clear
7:15 PM 89.1 °F 19.8 °F 8% 29.99 in 10.0 mi WNW 5.8 mph - N/A   Clear
7:35 PM 86.9 °F 19.4 °F 8% 29.99 in 10.0 mi WNW 6.9 mph - N/A   Clear
7:55 PM 82.6 °F 19.6 °F 10% 29.99 in 10.0 mi NW 5.8 mph - N/A   Clear
8:15 PM 81.3 °F 18.7 °F 10% 29.99 in 10.0 mi North 4.6 mph - N/A   Clear
8:35 PM 78.3 °F 19.0 °F 11% 29.99 in 10.0 mi NNW 6.9 mph - N/A   Clear
8:55 PM 75.9 °F 18.1 °F 11% 30.00 in 10.0 mi Calm Calm - N/A   Clear
9:15 PM 67.6 °F 18.7 °F 15% 30.00 in 10.0 mi East 3.5 mph - N/A   Clear
9:35 PM 64.9 °F 21.6 °F 19% 30.01 in 10.0 mi SE 3.5 mph - N/A   Clear
9:55 PM 63.5 °F 20.1 °F 19% 30.01 in 10.0 mi SE 3.5 mph - N/A   Clear
10:15 PM 62.1 °F 19.4 °F 19% 30.01 in 10.0 mi SE 5.8 mph - N/A   Clear
10:35 PM 58.1 °F 19.4 °F 22% 30.01 in 10.0 mi SE 4.6 mph - N/A   Clear
10:55 PM 58.8 °F 19.0 °F 21% 30.01 in 10.0 mi SSE 4.6 mph - N/A   Clear
11:15 PM 58.6 °F 18.0 °F 21% 30.00 in 10.0 mi SE 5.8 mph - N/A   Clear
11:35 PM 56.8 °F 18.7 °F 23% 30.00 in 10.0 mi ESE 8.1 mph - N/A   Clear
11:55 PM 57.0 °F 19.8 °F 23% 30.01 in 10.0 mi SE 5.8 mph - N/A   Clear